Tracking 28091 objects as of 30-Sep-2023
HD Live streaming from Space Station
objects crossing your sky now

INTELSAT 601

Track INTELSAT 601 now!
INTELSAT 601 is classified as:


NORAD ID: 21765
Int'l Code: 1991-075A
Perigee: 35,976.8 km
Apogee: 35,991.8 km
Inclination: 12.4 °
Period: 1,445.8 minutes
Semi major axis: 42355 km
RCS: 16.4798 m2 (large)
Launch date: October 29, 1991
Source: International Telecommunications Satellite Organization (ITSO)
Launch site: FRENCH GUIANA (FRGUI)

64 C-band, 24 Ku-band; Broadcasting, business services, direct-to-home TV broadcasting, telecommunications, VSAT networks; Indian Ocean region.
Your satellite tracking list
Your tracking list is empty




NASA's NSSDC Master Catalog

Two Line Element Set (TLE):
1 21765U 91075A   23272.55736352 -.00000329  00000-0  00000-0 0  9990
2 21765  12.4053  23.7176 0001768 114.0483 217.6582  0.99595914116490
Source of the keplerian elements: AFSPC